Hourly Data Report for October 05, 2016

All times are specified in Local Standard Time (LST). Add 1 hour to adjust for Daylight Saving Time where and when it is observed.

RESOLUTE BAY A
NUNAVUT

74°43'01.000" N
94°58'10.000" W
67.70 m
2403498
71924
YRB

Download Data

Hourly Data (October 2016)
Hourly Data Report for October 5, 2016
Temp Definition
°C
Dew Point Temp Definition
°C
Rel Hum Definition
%
Wind Dir Definition
10's deg

Wind Spd Definition
km/h
Visibility Definition
km
Stn Press Definition
kPa
Hmdx Definition


Wind Chill Definition


Weather Definition


TIME
00:00 Legend Double Dagger -4.9 -5.7 94 22 18 24.1 100.20   -11 Cloudy
01:00 Legend Double Dagger -4.3 -5.3 93 22 18 24.1 100.24   -10 LegendNANA
02:00
03:00 Legend Double Dagger -3.8 -4.6 94 26 17 24.1 100.28   -10 Cloudy
04:00 Legend Double Dagger -3.7 -4.5 94 27 18 24.1 100.33   -10 LegendNANA
05:00 Legend Double Dagger -3.7 -4.5 94 26 18 16.1 100.38   -10 Snow
06:00 Legend Double Dagger -3.8 -4.9 92 28 16 24.1 100.43   -9 Cloudy
07:00 Legend Double Dagger -3.8 -4.8 93 26 14 24.1 100.46   -9 LegendNANA
08:00 Legend Double Dagger -3.6 -4.7 92 28 15 24.1 100.49   -9 LegendNANA
09:00 Legend Double Dagger -3.3 -4.4 92 28 18 12.9 100.53   -9 Snow
10:00 Legend Double Dagger -3.3 -4.3 93 28 14 19.3 100.54   -8 Snow
11:00 Legend Double Dagger -3.2 -4.2 93 27 17 16.1 100.56   -9 Snow
12:00 Legend Double Dagger -3.2 -4.3 92 27 15 16.1 100.60   -8 Snow
13:00 Legend Double Dagger -3.1 -4.1 93 27 13 12.9 100.62   -8 Snow
14:00 Legend Double Dagger -3.3 -4.0 95 26 16 6.4 100.65   -9 Snow,Fog
15:00 Legend Double Dagger -3.3 -4.0 95 27 15 6.4 100.66   -8 Snow,Fog
16:00 Legend Double Dagger -3.3 -4.0 95 27 13 16.1 100.66   -8 Snow
17:00 Legend Double Dagger -3.4 -4.1 95 26 13 9.7 100.67   -8 Snow
18:00 Legend Double Dagger -3.4 -4.1 95 26 13 12.9 100.68   -8 Snow
19:00 Legend Double Dagger -3.4 -4.1 95 26 15 16.1 100.67   -9 Snow
20:00 Legend Double Dagger -3.2 -3.9 95 27 17 24.1 100.65   -9 Snow
21:00 Legend Double Dagger -3.1 -3.7 96 27 14 24.1 100.65   -8 Snow
22:00 Legend Double Dagger -3.1 -3.7 96 27 16 24.1 100.61   -8 Snow
23:00 Legend Double Dagger -3.0 -3.6 96 29 12 16.1 100.59   -7 Snow

Notes on Data Quality.

Legend

  • E = Estimated
  • M = Missing
  • NA = Not Available
  • ‡ = Partner data that is not subject to review by the National Climate Archives
Date modified: